Home > Weather > Las Palmas > Past weeks

Flag for Spain Past Weather in Las Palmas, Canary Islands, Spain — Yesterday and Last 2 Weeks

Now
81 °F

Passing clouds.


Feels Like: 84 °F
Forecast: 72 / 80 °F
Wind: 25 mph from Northeast

Location: Las Palmas De Gran Canaria / Gando

Current Time: Jul 26, 2016 at 3:18:31 PM

Latest Report: Jul 26, 2016 at 3:00 PM


Visibility: 5 mi

Pressure: 30.01 "Hg

Humidity: 70%

Dew Point: 70 °F

Location of Las PalmasLocation

Past Weather in Las Palmas — Graph

°F

Las Palmas Temperature Yesterday

Maximum temperature yesterday: 82 °F (at 1:00 PM)
Minimum temperature yesterday: 72 °F (at 12:00 AM)
Average temperature yesterday: 76 °F

High & Low Weather Summary for the Past Weeks

 TemperatureHumidityPressure
High90 °F (Jul 16, 3:00 PM)94% (Jul 21, 4:30 AM)30.04 "Hg (Jul 21, 4:30 AM)
Low70 °F (Jul 15, 2:00 AM)16% (Jul 16, 2:30 PM)29.86 "Hg (Jul 24, 9:30 PM)
Average77 °F57%29.96 "Hg
* Reported Jul 11 2:00 PM — Jul 26 2:00 PM, Las Palmas, Weather by CustomWeather, © 2016

Note: Actual official high and low records may vary slightly from our data, if they occured in-between our weather recording intervals... More about our weather records

Advertising

Las Palmas Weather History for the Previous 24 Hours

Scroll right to see more
 ConditionsComfort  
Time TempWeatherWind HumidityBarometerVisibility
2:00 PM
Tue, Jul 26
81 °FPassing clouds.25 mph70%30.01 "Hg4 mi
1:30 PM79 °FPassing clouds.24 mph74%30.04 "Hg4 mi
1:00 PM79 °FPassing clouds.23 mph74%30.04 "Hg4 mi
12:30 PM79 °FPassing clouds.23 mph74%30.04 "Hg4 mi
12:00 PM79 °FPassing clouds.21 mph74%30.04 "Hg4 mi
11:30 AM77 °FPassing clouds.22 mph79%30.04 "Hg5 mi
11:00 AM77 °FPassing clouds.21 mph79%30.04 "Hg4 mi
10:30 AM77 °FPassing clouds.22 mph79%30.04 "Hg4 mi
10:00 AM77 °FPassing clouds.20 mph79%30.04 "Hg4 mi
9:30 AM75 °FPassing clouds.18 mph83%30.01 "Hg4 mi
9:00 AM77 °FPassing clouds.16 mph74%30.01 "Hg6 mi
8:30 AM75 °FPassing clouds.9 mph78%29.98 "Hg6 mi
8:00 AM77 °FPassing clouds.3 mph65%29.98 "Hg6 mi
7:30 AM75 °FPassing clouds.6 mph69%29.98 "Hg6 mi
7:00 AM73 °FPassing clouds.14 mph78%29.98 "Hg6 mi
6:30 AM73 °FPassing clouds.10 mph83%30.04 "Hg6 mi
6:00 AM73 °FPassing clouds.14 mph83%30.01 "Hg6 mi
5:30 AM77 °FPassing clouds.16 mph65%29.98 "HgN/A
5:00 AM81 °FPassing clouds.15 mph37%29.98 "HgN/A
4:30 AM81 °FPassing clouds.17 mph34%29.98 "HgN/A
4:00 AM79 °FPassing clouds.16 mph45%29.98 "HgN/A
3:30 AM75 °FPassing clouds.15 mph69%29.98 "Hg6 mi
3:00 AM73 °FPassing clouds.21 mph83%29.98 "Hg5 mi
2:30 AM73 °FPassing clouds.21 mph83%29.98 "Hg5 mi
2:00 AM73 °FPassing clouds.22 mph83%29.98 "Hg5 mi
1:30 AM73 °FPassing clouds.23 mph83%29.98 "Hg5 mi
1:00 AM73 °FPassing clouds.20 mph83%29.98 "Hg6 mi
12:30 AM73 °FPassing clouds.20 mph83%29.98 "Hg6 mi
12:00 AM73 °FPassing clouds.21 mph83%29.98 "Hg6 mi
11:30 PM
Mon, Jul 25
73 °FPassing clouds.20 mph83%29.98 "Hg6 mi
11:00 PM75 °FPassing clouds.22 mph78%29.95 "Hg6 mi
10:30 PM75 °FPassing clouds.21 mph78%29.95 "HgN/A
10:00 PM75 °FPassing clouds.22 mph78%29.95 "HgN/A
9:30 PM75 °FPassing clouds.21 mph78%29.95 "HgN/A
9:00 PM75 °FPassing clouds.18 mph78%29.95 "HgN/A
8:30 PM77 °FPassing clouds.20 mph74%29.92 "HgN/A
8:00 PM77 °FPassing clouds.21 mph74%29.92 "HgN/A
7:30 PM77 °FPassing clouds.22 mph74%29.92 "HgN/A
7:00 PM79 °FPassing clouds.22 mph70%29.92 "HgN/A
6:30 PM77 °FPassing clouds.23 mph74%29.92 "HgN/A
6:00 PM79 °FPassing clouds.21 mph70%29.95 "HgN/A
5:30 PM79 °FSunny.24 mph70%29.95 "Hg10 mi
5:00 PM79 °FSunny.25 mph70%29.92 "Hg10 mi
4:30 PM79 °FSunny.26 mph70%29.95 "Hg10 mi
4:00 PM81 °FSunny.24 mph66%29.95 "Hg10 mi
3:30 PM81 °FSunny.25 mph66%29.95 "Hg10 mi
3:00 PM81 °FPassing clouds.26 mph62%29.95 "HgN/A
Weather by CustomWeather, © 2016

See weather overviewHow to use our weather pages